Location: Saluda
(35.2377°N, 82.3468°W)
Time: 17:05:45
(UTC+00:00)

Explorer 11/Cluster Stage 4 - Pass Details

Date: 04 October 2022
Orbit: 466 x 1247 km, 28.8° (Epoch: 08 December)

Event Time Altitude Azimuth Distance (km) Brightness Sun altitude
Rises 18:47:25 0° 263° (W) 4,135 10.7 45.0°
Reaches altitude 10° 18:50:32 10° 258° (WSW) 3,112 10.3 44.7°
Maximum altitude 18:57:59 50° 186° (S) 1,329 9.4 43.8°
Drops below altitude 10° 19:04:15 10° 112° (ESE) 2,633 9.3 43.0°
Sets 19:06:42 0° 107° (ESE) 3,456 9.7 42.7°
